QIANFAN-26

Satellite information

Favourite Embed

Satellite Type and Status

PAYLOADIN ORBIT

Key statistics

Satellite QIANFAN-26 at a glance.

Uptime

373

Days in orbit

Revolutions

≈ 13.8

Per day

Orbit

LEO

Low Earth Orbit

Inclination

89.0

Latest

Satellite identification and parameters

Extended collection of information and parameters for QIANFAN-26.

Object identification

Identified? True

Debris? False

Object name: QIANFAN-26

International designator: 2024-185H

Object number (NORAD): 61559

Object ID (CCSDS): 61559

Country: PEOPLES REPUBLIC OF CHINA (PRC)

Current information (Y/N): Y

RCS size: LARGE

Orbital parameters

Period: 104.517 minutes

Inclination: 88.9768 deg

SMA: 7349.947 km

Apoapsis: 976.603 km

Periapsis: 967.022 km

RAAN: 85.2228 deg

Eccentricy: 0.00065174

Argument of periapsis: 150.2275 deg

Mean anomaly: 209.9263 deg

Mean motion: 13.77769047 rev/day

Mean motion (dot): 0.00000431 rev/day2

B* drag term: 0.00041852235 1/REarth

Two-line elements (TLE)

Creation date: Oct. 23, 2025, 2:46 a.m.

Reference frame: TEME

Reference center: EARTH

Epoch: Oct. 22, 2025, 11:37 p.m. UTC

TLE line 0: 0 QIANFAN-26

TLE line 1: 1 61559U 24185H 25295.98422087 .00000431 00000-0 41852-3 0 9990

TLE line 2: 2 61559 88.9768 85.2228 0006517 150.2275 209.9263 13.77769047 61685

Live tracking on map

Real-time ground track for satellite QIANFAN-26.

In-orbit conjunctions

There are no conjunctions computed for QIANFAN-26, at the moment. Check back to stay up to date, as we update our databases every day.

Go to all conjunctions

Associated space launch

18 Low Earth Orbit communication satellites with Ku, Q and V band payloads for the G60 constellation operated by Shanghai Spacecom Satellite Technology (SSST) with funding backed by the Shanghai local government. Initial constellation will consist of 1296 satellites by 2027 with long term plans to expand it to 12000 satellites.

QIANFAN-26 was lifted into orbit during the mission ‘Long March 6A | G60 Polar Group 02’, on board a Long March 6A space rocket.

The launch took place on Oct. 15, 2024, 11:06 a.m. from Launch Complex 9A.

For more information about the launch, click the button.

Launch to space Long March 6A | G60 Polar Group 02
Long March 6A | G60 Polar Group 02

Agency: N/A

Status: Launch Successful

Launch date: Oct. 15, 2024, 11:06 a.m. UTC

Rocket: Long March 6A

Launch pad: Launch Complex 9A

Location: Taiyuan Satellite Launch Center, People's Republic of China

...

Latest news about this satellite

News about space launch
Launch Roundup: Europa Clipper launches, Starlink launches return

The Federal Aviation Administration’s (FAA) recent decision to clear SpaceX’s Falcon 9 for a return to all flights paved the way for a busy week of launches. Before Falcon 9 returned to flying regular Starlink missions, though, a Falcon Heavy launch with ...

News about space launch
China launches second batch of 18 satellites for Thousand Sails megaconstellation

MILAN — China successfully launched the second group of 18 satellites for the planned 14,000-satellite Thousand Sails megaconstellation Tuesday. A Long March 6A rocket lifted off from Taiyuan Satellite Launch […]


Newsletter sign-up

Weekly statistics, charts and insights to help you stay on top of the space industry.